D1996 KHII-KHII

Flight info

Callsign D1996
Flight time N/A
Altitude 5000
Route GLIDER VFR
Aircraft DISC/L-VGD/C

Departure

Time 2026-04-20 18:41
Airport Lake Havasu City Airport (KHII)

Arrival

Time N/A
Airport Lake Havasu City Airport (KHII)
Time Latitude Longitude Altitude Speed Heading
2026-04-20 18:29 34.58040 -114.36484 748 ft 0 kts 148°
2026-04-20 18:35 34.58041 -114.36484 748 ft 0 kts 147°
2026-04-20 18:40 34.58038 -114.36482 748 ft 15 kts 147°
2026-04-20 18:41 34.57722 -114.36263 1191 ft 55 kts 157°
2026-04-20 18:41 34.57423 -114.35972 1759 ft 51 kts 140°
2026-04-20 18:41 34.57195 -114.35681 2554 ft 51 kts 130°
2026-04-20 18:41 34.56983 -114.35314 3253 ft 54 kts 138°
2026-04-20 18:42 34.56805 -114.34954 3903 ft 35 kts 132°
2026-04-20 18:42 34.56582 -114.34589 3746 ft 63 kts 141°
2026-04-20 18:42 34.56256 -114.34294 3763 ft 59 kts 160°
2026-04-20 18:42 34.55836 -114.34216 3689 ft 63 kts 182°
2026-04-20 18:43 34.55453 -114.34416 3678 ft 61 kts 213°
2026-04-20 18:43 34.55257 -114.34881 3700 ft 65 kts 248°
2026-04-20 18:43 34.55331 -114.35455 3707 ft 73 kts 286°
2026-04-20 18:43 34.55765 -114.35878 3704 ft 88 kts 338°
2026-04-20 18:44 34.56323 -114.36075 3719 ft 85 kts 344°
2026-04-20 18:44 34.56923 -114.36212 3666 ft 89 kts 349°
2026-04-20 18:44 34.57505 -114.36359 3697 ft 87 kts 343°
2026-04-20 18:44 34.58077 -114.36521 3718 ft 79 kts 347°
2026-04-20 18:45 34.58640 -114.36667 3640 ft 86 kts 347°
2026-04-20 18:45 34.59222 -114.36846 3606 ft 90 kts 340°
2026-04-20 18:45 34.59812 -114.37041 3639 ft 85 kts 339°
2026-04-20 18:45 34.60364 -114.37181 3737 ft 81 kts 339°
2026-04-20 18:46 34.60591 -114.37662 3758 ft 60 kts 235°
2026-04-20 18:46 34.60297 -114.37705 3756 ft 59 kts 132°
2026-04-20 18:46 34.60490 -114.37235 3873 ft 76 kts 27°
2026-04-20 18:46 34.60997 -114.37390 3857 ft 77 kts 301°
2026-04-20 18:47 34.61015 -114.37910 3807 ft 56 kts 215°
2026-04-20 18:47 34.60708 -114.37848 3773 ft 57 kts 125°
2026-04-20 18:47 34.60915 -114.37379 3811 ft 82 kts 33°
2026-04-20 18:47 34.61454 -114.37473 3797 ft 81 kts 309°
2026-04-20 18:48 34.61534 -114.37981 3719 ft 54 kts 214°
2026-04-20 18:48 34.61258 -114.37890 3706 ft 57 kts 121°
2026-04-20 18:48 34.61489 -114.37416 3725 ft 82 kts 27°
2026-04-20 18:48 34.61962 -114.37642 3692 ft 74 kts 279°
2026-04-20 18:49 34.61788 -114.38024 3691 ft 50 kts 172°
2026-04-20 18:49 34.61697 -114.37613 3712 ft 72 kts 73°
2026-04-20 18:49 34.62163 -114.37411 3781 ft 83 kts 335°
2026-04-20 18:49 34.62377 -114.37898 3748 ft 61 kts 231°
2026-04-20 18:50 34.62103 -114.37926 3743 ft 56 kts 125°
2026-04-20 18:50 34.62341 -114.37476 3851 ft 76 kts 15°
2026-04-20 18:50 34.62861 -114.37710 3743 ft 83 kts 316°
2026-04-20 18:50 34.63331 -114.38081 3773 ft 80 kts 322°
2026-04-20 18:51 34.63857 -114.38353 3793 ft 85 kts 337°
2026-04-20 18:51 34.64377 -114.38567 3814 ft 81 kts 338°
2026-04-20 18:51 34.64888 -114.38841 3846 ft 75 kts 309°
2026-04-20 18:51 34.64909 -114.39301 3853 ft 45 kts 200°
2026-04-20 18:52 34.64699 -114.39097 3792 ft 64 kts 93°
2026-04-20 18:52 34.65090 -114.38763 3821 ft 82 kts
2026-04-20 18:52 34.65624 -114.38913 3816 ft 77 kts 335°
2026-04-20 18:52 34.66144 -114.39182 3773 ft 82 kts 334°
2026-04-20 18:53 34.66617 -114.39489 3807 ft 78 kts 325°
2026-04-20 18:53 34.67102 -114.39785 3746 ft 79 kts 321°
2026-04-20 18:53 34.67517 -114.40203 3665 ft 75 kts 304°
2026-04-20 18:53 34.67896 -114.40644 3640 ft 77 kts 316°
2026-04-20 18:54 34.68340 -114.41031 3558 ft 80 kts 328°
2026-04-20 18:54 34.68609 -114.41317 3554 ft 75 kts 303°
2026-04-20 18:54 34.68978 -114.41759 3494 ft 78 kts 307°
2026-04-20 18:54 34.69367 -114.42199 3462 ft 77 kts 310°
2026-04-20 18:55 34.69766 -114.42688 3413 ft 84 kts 306°
2026-04-20 18:55 34.70199 -114.43181 3367 ft 84 kts 309°
2026-04-20 18:55 34.70606 -114.43671 3420 ft 78 kts 309°
2026-04-20 18:55 34.71012 -114.44129 3422 ft 82 kts 315°
2026-04-20 18:56 34.71449 -114.44542 3490 ft 77 kts 317°
2026-04-20 18:56 34.71877 -114.44979 3474 ft 82 kts 315°
2026-04-20 18:56 34.72302 -114.45428 3460 ft 82 kts 310°
2026-04-20 18:56 34.72684 -114.45911 3444 ft 82 kts 300°
2026-04-20 18:57 34.73040 -114.46487 3433 ft 86 kts 296°
2026-04-20 18:57 34.73402 -114.47061 3416 ft 87 kts 294°
2026-04-20 18:57 34.73739 -114.47640 3461 ft 80 kts 295°
2026-04-20 18:57 34.74043 -114.48233 3429 ft 84 kts 290°
2026-04-20 18:58 34.74240 -114.48846 3428 ft 79 kts 271°
2026-04-20 18:58 34.74402 -114.49474 3410 ft 74 kts 275°
2026-04-20 18:58 34.74531 -114.50097 3365 ft 76 kts 270°
2026-04-20 18:58 34.74686 -114.50691 3401 ft 74 kts 279°
2026-04-20 18:59 34.74855 -114.51325 3363 ft 79 kts 274°
2026-04-20 18:59 34.74966 -114.51954 3372 ft 76 kts 267°
2026-04-20 18:59 34.75062 -114.52572 3432 ft 76 kts 274°
2026-04-20 18:59 34.75240 -114.53194 3398 ft 85 kts 290°
2026-04-20 19:00 34.75516 -114.53852 3338 ft 88 kts 284°
2026-04-20 19:00 34.75764 -114.54566 3289 ft 94 kts 280°
2026-04-20 19:00 34.76002 -114.55302 3290 ft 93 kts 282°
2026-04-20 19:00 34.76227 -114.56028 3267 ft 93 kts 279°
2026-04-20 19:01 34.76434 -114.56776 3232 ft 95 kts 278°
2026-04-20 19:01 34.76619 -114.57557 3169 ft 99 kts 279°
2026-04-20 19:01 34.76821 -114.58353 3133 ft 99 kts 277°
2026-04-20 19:01 34.76985 -114.59145 3139 ft 95 kts 275°
2026-04-20 19:02 34.77118 -114.59936 3122 ft 94 kts 273°
2026-04-20 19:02 34.77472 -114.60573 3136 ft 99 kts 336°
2026-04-20 19:02 34.78156 -114.60460 3048 ft 104 kts 27°
2026-04-20 19:02 34.78852 -114.60422 2966 ft 109 kts 317°
2026-04-20 19:03 34.78863 -114.61065 2869 ft 76 kts 204°
2026-04-20 19:03 34.78414 -114.61331 2862 ft 69 kts 196°
2026-04-20 19:03 34.77983 -114.61599 2844 ft 70 kts 199°
2026-04-20 19:03 34.77558 -114.61856 2843 ft 68 kts 196°
2026-04-20 19:04 34.77163 -114.62107 2832 ft 62 kts 201°
2026-04-20 19:04 34.76797 -114.62364 2779 ft 60 kts 200°
2026-04-20 19:04 34.76418 -114.62539 2718 ft 58 kts 172°
2026-04-20 19:04 34.76290 -114.62045 2661 ft 91 kts 74°
2026-04-20 19:05 34.76877 -114.61622 2623 ft 100 kts 25°
2026-04-20 19:05 34.77512 -114.61359 2610 ft 94 kts 19°
2026-04-20 19:05 34.78110 -114.61105 2611 ft 91 kts 33°
2026-04-20 19:05 34.78694 -114.60805 2574 ft 95 kts 20°
2026-04-20 19:06 34.79234 -114.61124 2556 ft 83 kts 282°
2026-04-20 19:06 34.79097 -114.61672 2484 ft 72 kts 206°
2026-04-20 19:06 34.78650 -114.61929 2440 ft 68 kts 193°
2026-04-20 19:06 34.78257 -114.62202 2386 ft 61 kts 201°
2026-04-20 19:07 34.77882 -114.62458 2273 ft 66 kts 192°
2026-04-20 19:07 34.77436 -114.62626 2214 ft 66 kts 190°
2026-04-20 19:07 34.77010 -114.62736 2185 ft 61 kts 186°
2026-04-20 19:07 34.76579 -114.62821 2111 ft 61 kts 185°
2026-04-20 19:08 34.76135 -114.62804 1964 ft 71 kts 143°
2026-04-20 19:08 34.76728 -114.61851 1895 ft 82 kts 27°
2026-04-20 19:08 34.77232 -114.61584 1837 ft 78 kts 24°
2026-04-20 19:09 34.77739 -114.61384 1783 ft 78 kts 357°
2026-04-20 19:09 34.78111 -114.61799 1737 ft 78 kts 268°
2026-04-20 19:09 34.77820 -114.62230 1714 ft 69 kts 197°
2026-04-20 19:09 34.77366 -114.62386 1666 ft 66 kts 195°
2026-04-20 19:10 34.76938 -114.62564 1550 ft 65 kts 200°
2026-04-20 19:10 34.76518 -114.62747 1518 ft 64 kts 200°
2026-04-20 19:10 34.76111 -114.62893 1423 ft 51 kts 191°
2026-04-20 19:10 34.75778 -114.62958 1338 ft 44 kts 187°
2026-04-20 19:11 34.75740 -114.62561 1078 ft 92 kts 30°
2026-04-20 19:11 34.76301 -114.62270 1116 ft 78 kts 26°
2026-04-20 19:11 34.76762 -114.61956 1067 ft 78 kts 30°
2026-04-20 19:11 34.77193 -114.61631 1072 ft 69 kts 39°
2026-04-20 19:12 34.77594 -114.61304 971 ft 74 kts 29°
2026-04-20 19:12 34.77976 -114.61441 906 ft 52 kts 257°
2026-04-20 19:12 34.77807 -114.61584 838 ft 26 kts 191°
2026-04-20 19:12 34.77728 -114.61603 858 ft 0 kts 197°